カタログに戻る

STARLINK-34802

運用中通信SSO
NORAD 65067·PAYLOAD·🇺🇸 United States

打ち上げ Jul 31, 2025 から Vandenberg Space Force Base

Loading…

次のパス (今後24時間)

TLE

最新Source: CelesTrak SupGP

元期: Sep 14, 2026, 23:14 UTC

1 65067C 25165M   26257.96854167  .01094400  00000+0  34173-1 0  2574
2 65067  97.2843 329.2919 0001646  85.2248 121.2200 15.32698255    15

AllMySatでSTARLINK-34802をリアルタイム追跡

Download on the App Store